NORTHEAST SUFFOLK  -  Rip Current Statement Rip Current Statement        NORTHERN NASSAU  -  Rip Current Statement Rip Current Statement        NORTHERN QUEENS  -  Rip Current Statement Rip Current Statement     Air Quality Alert Air Quality Alert        NORTHWEST SUFFOLK  -  Rip Current Statement Rip Current Statement        SOUTHEAST SUFFOLK  -  Rip Current Statement Rip Current Statement        SOUTHERN NASSAU  -  Rip Current Statement Rip Current Statement        SOUTHERN QUEENS  -  Rip Current Statement Rip Current Statement     Air Quality Alert Air Quality Alert        SOUTHWEST SUFFOLK  -  Rip Current Statement Rip Current Statement      

Active alerts

Northern Queens
  Details for Northern Queens Rip Current Statement  +1 additional alert
Southern Queens
  Details for Southern Queens Rip Current Statement  +1 additional alert
Northern Nassau
  Details for Northern Nassau Rip Current Statement
Southern Nassau
  Details for Southern Nassau Rip Current Statement
Northwest Suffolk
  Details for Northwest Suffolk Rip Current Statement
Southwest Suffolk
  Details for Southwest Suffolk Rip Current Statement
Northeast Suffolk
  Details for Northeast Suffolk Rip Current Statement
Southeast Suffolk
  Details for Southeast Suffolk Rip Current Statement


WXM80 ListenWXM80 Stop

You find our weather info also at:

UK Metoffice

WeatherCloud

Weather Underground

Northeastern Weather Network

AWEKAS

Citizen Weather Observer Program (CWOP)

HAMweather, WeatherForYou, PWS Weather


Weather Underground History page Text

Daily Summary for May 7, 2017 Units:  Both    English   Metric
« Previous Day
Next Day »
Daily Weekly Monthly Yearly Custom
  High: Low: Average:
Temperature: 64.8 °F /  18.2 °C 47.9 °F /  8.8 °C 53.9 °F /  12.2 °C
Dew Point: 50.2 °F /  10.1 °C 39.7 °F /  4.3 °C 45 °F /  7.2 °C
Humidity: 87 % 49 % 73 %
Wind Speed: 8.6 mph /  13.8 km/h - 3.5 mph /  5.6 km/h
Wind Gust: 17.0 mph /  27.4 km/h - -
Wind:- - WSW
Pressure: 29.74 in /  1007 hPa 29.44 in /  996.8 hPa -
Precipitation: 0.01 in /  0.25 mm    
Historical Graphs
 
 
Tabular Data for May 7, 2017
Time Temperature Dew Point Pressure Wind Wind Speed Wind Gust Humidity Rainfall Rate (Hourly)
00:01 55.3 °F /  12.9 °C 50.2 °F /  10.1 °C 29.44 in /  996.8 hPa WSW 2.2 mph /  3.5 km/h 4.6 mph /  7.4 km/h 83 % 0.00 in /  0 mm
00:06 55.3 °F /  12.9 °C 49.9 °F /  9.9 °C 29.44 in /  996.8 hPa SW 0.8 mph /  1.3 km/h 4.6 mph /  7.4 km/h 82 % 0.00 in /  0 mm
00:11 55.3 °F /  12.9 °C 49.9 °F /  9.9 °C 29.44 in /  996.8 hPa SW 2.8 mph /  4.5 km/h 3.5 mph /  5.6 km/h 82 % 0.00 in /  0 mm
00:16 55.2 °F /  12.9 °C 49.8 °F /  9.9 °C 29.45 in /  997.2 hPa WSW 2.4 mph /  3.9 km/h 3.5 mph /  5.6 km/h 82 % 0.00 in /  0 mm
00:21 55.2 °F /  12.9 °C 50.1 °F /  10.1 °C 29.45 in /  997.2 hPa WSW 0.1 mph /  0.2 km/h 1.2 mph /  1.9 km/h 83 % 0.00 in /  0 mm
00:27 55.2 °F /  12.9 °C 50.1 °F /  10.1 °C 29.45 in /  997.2 hPa WSW 0.5 mph /  0.8 km/h 2.3 mph /  3.7 km/h 83 % 0.00 in /  0 mm
00:32 55.2 °F /  12.9 °C 50.1 °F /  10.1 °C 29.45 in /  997.2 hPa SW 0.8 mph /  1.3 km/h 3.5 mph /  5.6 km/h 83 % 0.00 in /  0 mm
00:37 55.1 °F /  12.8 °C 49.7 °F /  9.8 °C 29.45 in /  997.2 hPa South 1.5 mph /  2.4 km/h 3.5 mph /  5.6 km/h 82 % 0.00 in /  0 mm
00:42 55.1 °F /  12.8 °C 49.4 °F /  9.7 °C 29.45 in /  997.2 hPa SW 2.7 mph /  4.3 km/h 6.9 mph /  11.1 km/h 81 % 0.00 in /  0 mm
00:47 55.1 °F /  12.8 °C 49.4 °F /  9.7 °C 29.46 in /  997.5 hPa WSW 3.1 mph /  5 km/h 4.6 mph /  7.4 km/h 81 % 0.00 in /  0 mm
00:52 55.0 °F /  12.8 °C 48.9 °F /  9.4 °C 29.46 in /  997.5 hPa SW 6.0 mph /  9.7 km/h 10.4 mph /  16.7 km/h 80 % 0.00 in /  0 mm
00:57 55.1 °F /  12.8 °C 49.0 °F /  9.4 °C 29.46 in /  997.5 hPa West 5.4 mph /  8.7 km/h 6.9 mph /  11.1 km/h 80 % 0.00 in /  0 mm
01:02 55.0 °F /  12.8 °C 48.9 °F /  9.4 °C 29.46 in /  997.5 hPa SSW 6.3 mph /  10.1 km/h 8.0 mph /  12.9 km/h 80 % 0.00 in /  0 mm
01:07 55.0 °F /  12.8 °C 48.9 °F /  9.4 °C 29.46 in /  997.5 hPa SW 5.3 mph /  8.5 km/h 10.0 mph /  16.1 km/h 80 % 0.00 in /  0 mm
01:12 54.9 °F /  12.7 °C 48.5 °F /  9.2 °C 29.46 in /  997.5 hPa SSW 2.5 mph /  4 km/h 6.0 mph /  9.7 km/h 79 % 0.00 in /  0 mm
01:17 54.8 °F /  12.7 °C 48.4 °F /  9.1 °C 29.46 in /  997.5 hPa SW 5.1 mph /  8.2 km/h 7.0 mph /  11.3 km/h 79 % 0.00 in /  0 mm
01:22 54.8 °F /  12.7 °C 48.4 °F /  9.1 °C 29.47 in /  997.9 hPa SSW 1.6 mph /  2.6 km/h 5.0 mph /  8 km/h 79 % 0.00 in /  0 mm
01:27 54.6 °F /  12.6 °C 48.2 °F /  9 °C 29.47 in /  997.9 hPa SW 6.2 mph /  10 km/h 12.7 mph /  20.4 km/h 79 % 0.00 in /  0 mm
01:32 54.6 °F /  12.6 °C 48.2 °F /  9 °C 29.47 in /  997.9 hPa WSW 3.9 mph /  6.3 km/h 7.0 mph /  11.3 km/h 79 % 0.00 in /  0 mm
01:38 54.5 °F /  12.5 °C 48.1 °F /  8.9 °C 29.47 in /  997.9 hPa SSW 5.5 mph /  8.9 km/h 8.1 mph /  13 km/h 79 % 0.00 in /  0 mm
01:43 54.3 °F /  12.4 °C 47.9 °F /  8.8 °C 29.47 in /  997.9 hPa SW 2.4 mph /  3.9 km/h 6.9 mph /  11.1 km/h 79 % 0.00 in /  0 mm
01:48 54.1 °F /  12.3 °C 47.7 °F /  8.7 °C 29.47 in /  997.9 hPa SSW 4.9 mph /  7.9 km/h 9.2 mph /  14.8 km/h 79 % 0.00 in /  0 mm
01:53 53.9 °F /  12.2 °C 47.5 °F /  8.6 °C 29.47 in /  997.9 hPa SW 1.2 mph /  1.9 km/h 3.5 mph /  5.6 km/h 79 % 0.00 in /  0 mm
01:58 53.7 °F /  12.1 °C 47.7 °F /  8.7 °C 29.48 in /  998.2 hPa SSW 3.1 mph /  5 km/h 6.9 mph /  11.1 km/h 80 % 0.00 in /  0 mm
02:03 53.5 °F /  11.9 °C 47.5 °F /  8.6 °C 29.47 in /  997.9 hPa SSW 3.6 mph /  5.8 km/h 8.1 mph /  13 km/h 80 % 0.00 in /  0 mm
02:08 53.3 °F /  11.8 °C 47.3 °F /  8.5 °C 29.48 in /  998.2 hPa West 3.3 mph /  5.3 km/h 6.9 mph /  11.1 km/h 80 % 0.00 in /  0 mm
02:13 53.1 °F /  11.7 °C 47.4 °F /  8.6 °C 29.47 in /  997.9 hPa SSW 2.6 mph /  4.2 km/h 5.8 mph /  9.3 km/h 81 % 0.00 in /  0 mm
02:18 53.0 °F /  11.7 °C 47.3 °F /  8.5 °C 29.47 in /  997.9 hPa SSW 2.6 mph /  4.2 km/h 8.1 mph /  13 km/h 81 % 0.00 in /  0 mm
02:23 52.8 °F /  11.6 °C 47.1 °F /  8.4 °C 29.47 in /  997.9 hPa SSW 3.5 mph /  5.6 km/h 7.0 mph /  11.3 km/h 81 % 0.00 in /  0 mm
02:28 52.7 °F /  11.5 °C 47.4 °F /  8.6 °C 29.47 in /  997.9 hPa WSW 1.3 mph /  2.1 km/h 4.0 mph /  6.4 km/h 82 % 0.00 in /  0 mm
02:33 52.6 °F /  11.4 °C 47.3 °F /  8.5 °C 29.48 in /  998.2 hPa SSW 1.9 mph /  3.1 km/h 2.3 mph /  3.7 km/h 82 % 0.00 in /  0 mm
02:38 52.4 °F /  11.3 °C 47.1 °F /  8.4 °C 29.49 in /  998.5 hPa SW 2.9 mph /  4.7 km/h 5.8 mph /  9.3 km/h 82 % 0.00 in /  0 mm
02:43 52.3 °F /  11.3 °C 47.3 °F /  8.5 °C 29.48 in /  998.2 hPa SSW 2.9 mph /  4.7 km/h 4.6 mph /  7.4 km/h 83 % 0.00 in /  0 mm
02:48 52.2 °F /  11.2 °C 47.2 °F /  8.4 °C 29.49 in /  998.5 hPa SW 3.2 mph /  5.1 km/h 5.0 mph /  8 km/h 83 % 0.00 in /  0 mm
02:53 52.1 °F /  11.2 °C 47.1 °F /  8.4 °C 29.49 in /  998.5 hPa WSW 1.5 mph /  2.4 km/h 8.1 mph /  13 km/h 83 % 0.00 in /  0 mm
02:58 52.1 °F /  11.2 °C 47.1 °F /  8.4 °C 29.49 in /  998.5 hPa SSW 2.3 mph /  3.7 km/h 5.8 mph /  9.3 km/h 83 % 0.00 in /  0 mm
03:04 52.0 °F /  11.1 °C 47.3 °F /  8.5 °C 29.49 in /  998.5 hPa South 1.9 mph /  3.1 km/h 6.9 mph /  11.1 km/h 84 % 0.00 in /  0 mm
03:09 52.0 °F /  11.1 °C 47.3 °F /  8.5 °C 29.49 in /  998.5 hPa SW 3.0 mph /  4.8 km/h 5.8 mph /  9.3 km/h 84 % 0.00 in /  0 mm
03:14 51.9 °F /  11.1 °C 47.2 °F /  8.4 °C 29.49 in /  998.5 hPa SW 0.3 mph /  0.5 km/h 3.5 mph /  5.6 km/h 84 % 0.00 in /  0 mm
03:19 52.0 °F /  11.1 °C 47.3 °F /  8.5 °C 29.50 in /  998.9 hPa South 1.1 mph /  1.8 km/h 3.5 mph /  5.6 km/h 84 % 0.00 in /  0 mm
03:24 52.0 °F /  11.1 °C 47.3 °F /  8.5 °C 29.50 in /  998.9 hPa SW 1.0 mph /  1.6 km/h 3.5 mph /  5.6 km/h 84 % 0.00 in /  0 mm
03:29 52.0 °F /  11.1 °C 47.3 °F /  8.5 °C 29.50 in /  998.9 hPa WSW 3.3 mph /  5.3 km/h 4.6 mph /  7.4 km/h 84 % 0.00 in /  0 mm
03:34 51.9 °F /  11.1 °C 47.2 °F /  8.4 °C 29.50 in /  998.9 hPa WSW 1.2 mph /  1.9 km/h 3.5 mph /  5.6 km/h 84 % 0.00 in /  0 mm
03:39 52.0 °F /  11.1 °C 47.3 °F /  8.5 °C 29.50 in /  998.9 hPa WSW 1.3 mph /  2.1 km/h 3.5 mph /  5.6 km/h 84 % 0.00 in /  0 mm
03:44 52.0 °F /  11.1 °C 47.3 °F /  8.5 °C 29.50 in /  998.9 hPa SSW 6.4 mph /  10.3 km/h 9.2 mph /  14.8 km/h 84 % 0.00 in /  0 mm
03:49 52.1 °F /  11.2 °C 47.1 °F /  8.4 °C 29.50 in /  998.9 hPa SSW 6.1 mph /  9.8 km/h 12.7 mph /  20.4 km/h 83 % 0.00 in /  0 mm
03:54 52.3 °F /  11.3 °C 47.3 °F /  8.5 °C 29.50 in /  998.9 hPa SSW 8.6 mph /  13.8 km/h 11.5 mph /  18.5 km/h 83 % 0.00 in /  0 mm
03:59 52.4 °F /  11.3 °C 47.4 °F /  8.6 °C 29.51 in /  999.2 hPa SW 1.0 mph /  1.6 km/h 9.2 mph /  14.8 km/h 83 % 0.00 in /  0 mm
04:04 52.5 °F /  11.4 °C 47.5 °F /  8.6 °C 29.51 in /  999.2 hPa SSW 3.7 mph /  6 km/h 7.0 mph /  11.3 km/h 83 % 0.00 in /  0 mm
04:09 52.5 °F /  11.4 °C 47.2 °F /  8.4 °C 29.51 in /  999.2 hPa West 4.7 mph /  7.6 km/h 8.1 mph /  13 km/h 82 % 0.00 in /  0 mm
04:14 52.6 °F /  11.4 °C 47.3 °F /  8.5 °C 29.51 in /  999.2 hPa SW 0.4 mph /  0.6 km/h 4.0 mph /  6.4 km/h 82 % 0.00 in /  0 mm
04:19 52.6 °F /  11.4 °C 47.3 °F /  8.5 °C 29.51 in /  999.2 hPa SW 1.3 mph /  2.1 km/h 6.0 mph /  9.7 km/h 82 % 0.00 in /  0 mm
04:24 52.6 °F /  11.4 °C 47.3 °F /  8.5 °C 29.51 in /  999.2 hPa SW 4.7 mph /  7.6 km/h 6.0 mph /  9.7 km/h 82 % 0.00 in /  0 mm
04:29 52.6 °F /  11.4 °C 47.3 °F /  8.5 °C 29.51 in /  999.2 hPa SSW 6.8 mph /  10.9 km/h 11.0 mph /  17.7 km/h 82 % 0.00 in /  0 mm
04:34 52.6 °F /  11.4 °C 46.9 °F /  8.3 °C 29.51 in /  999.2 hPa SW 3.7 mph /  6 km/h 6.9 mph /  11.1 km/h 81 % 0.00 in /  0 mm
04:39 52.6 °F /  11.4 °C 46.9 °F /  8.3 °C 29.51 in /  999.2 hPa WSW 4.5 mph /  7.2 km/h 7.0 mph /  11.3 km/h 81 % 0.00 in /  0 mm
04:44 52.6 °F /  11.4 °C 46.9 °F /  8.3 °C 29.52 in /  999.5 hPa WSW 0.4 mph /  0.6 km/h 3.5 mph /  5.6 km/h 81 % 0.00 in /  0 mm
04:49 52.6 °F /  11.4 °C 46.9 °F /  8.3 °C 29.52 in /  999.5 hPa WSW 1.4 mph /  2.3 km/h 8.1 mph /  13 km/h 81 % 0.00 in /  0 mm
04:54 52.4 °F /  11.3 °C 46.7 °F /  8.2 °C 29.52 in /  999.5 hPa WSW 2.8 mph /  4.5 km/h 6.9 mph /  11.1 km/h 81 % 0.00 in /  0 mm
04:59 52.4 °F /  11.3 °C 46.7 °F /  8.2 °C 29.52 in /  999.5 hPa WSW 0.4 mph /  0.6 km/h 3.5 mph /  5.6 km/h 81 % 0.00 in /  0 mm
05:04 52.3 °F /  11.3 °C 47.0 °F /  8.3 °C 29.52 in /  999.5 hPa SE 2.7 mph /  4.3 km/h 4.6 mph /  7.4 km/h 82 % 0.00 in /  0 mm
05:10 52.2 °F /  11.2 °C 46.9 °F /  8.3 °C 29.52 in /  999.5 hPa SW 3.1 mph /  5 km/h 4.6 mph /  7.4 km/h 82 % 0.00 in /  0 mm
05:15 52.1 °F /  11.2 °C 46.8 °F /  8.2 °C 29.53 in /  999.9 hPa SW 1.1 mph /  1.8 km/h 3.5 mph /  5.6 km/h 82 % 0.00 in /  0 mm
05:20 52.0 °F /  11.1 °C 46.7 °F /  8.2 °C 29.53 in /  999.9 hPa Calm     82 % 0.00 in /  0 mm
05:25 51.9 °F /  11.1 °C 46.6 °F /  8.1 °C 29.53 in /  999.9 hPa SW 0.2 mph /  0.3 km/h   82 % 0.00 in /  0 mm
05:30 51.7 °F /  10.9 °C 46.4 °F /  8 °C 29.53 in /  999.9 hPa SW 1.0 mph /  1.6 km/h 2.3 mph /  3.7 km/h 82 % 0.00 in /  0 mm
05:35 51.7 °F /  10.9 °C 46.7 °F /  8.2 °C 29.53 in /  999.9 hPa SW 1.3 mph /  2.1 km/h 2.3 mph /  3.7 km/h 83 % 0.00 in /  0 mm
05:40 51.5 °F /  10.8 °C 46.5 °F /  8.1 °C 29.53 in /  999.9 hPa Calm     83 % 0.00 in /  0 mm
05:45 51.4 °F /  10.8 °C 46.7 °F /  8.2 °C 29.53 in /  999.9 hPa SW 0.1 mph /  0.2 km/h 1.2 mph /  1.9 km/h 84 % 0.00 in /  0 mm
05:50 51.2 °F /  10.7 °C 46.5 °F /  8.1 °C 29.53 in /  999.9 hPa Calm   1.2 mph /  1.9 km/h 84 % 0.00 in /  0 mm
05:55 51.1 °F /  10.6 °C 46.4 °F /  8 °C 29.54 in /  1000.2 hPa SW 0.7 mph /  1.1 km/h 3.5 mph /  5.6 km/h 84 % 0.00 in /  0 mm
06:00 51.0 °F /  10.6 °C 46.6 °F /  8.1 °C 29.53 in /  999.9 hPa SW 0.7 mph /  1.1 km/h 3.0 mph /  4.8 km/h 85 % 0.00 in /  0 mm
06:05 50.9 °F /  10.5 °C 46.6 °F /  8.1 °C 29.54 in /  1000.2 hPa SW 0.3 mph /  0.5 km/h 3.5 mph /  5.6 km/h 85 % 0.00 in /  0 mm
06:10 50.8 °F /  10.4 °C 46.8 °F /  8.2 °C 29.54 in /  1000.2 hPa Calm   2.3 mph /  3.7 km/h 86 % 0.00 in /  0 mm
06:15 50.7 °F /  10.4 °C 46.7 °F /  8.2 °C 29.54 in /  1000.2 hPa SW 0.2 mph /  0.3 km/h 1.2 mph /  1.9 km/h 86 % 0.00 in /  0 mm
06:20 50.6 °F /  10.3 °C 46.6 °F /  8.1 °C 29.55 in /  1000.6 hPa Calm     86 % 0.00 in /  0 mm
06:25 50.6 °F /  10.3 °C 46.9 °F /  8.3 °C 29.55 in /  1000.6 hPa SW 0.3 mph /  0.5 km/h 1.2 mph /  1.9 km/h 87 % 0.00 in /  0 mm
06:30 50.7 °F /  10.4 °C 47.0 °F /  8.3 °C 29.56 in /  1000.9 hPa SW 0.3 mph /  0.5 km/h 1.2 mph /  1.9 km/h 87 % 0.00 in /  0 mm
06:35 50.9 °F /  10.5 °C 47.2 °F /  8.4 °C 29.56 in /  1000.9 hPa SW 0.2 mph /  0.3 km/h 1.0 mph /  1.6 km/h 87 % 0.00 in /  0 mm
06:40 51.2 °F /  10.7 °C 47.5 °F /  8.6 °C 29.56 in /  1000.9 hPa Calm     87 % 0.00 in /  0 mm
06:45 51.6 °F /  10.9 °C 47.5 °F /  8.6 °C 29.57 in /  1001.2 hPa SSE 0.7 mph /  1.1 km/h 3.5 mph /  5.6 km/h 86 % 0.00 in /  0 mm
06:50 51.9 °F /  11.1 °C 47.8 °F /  8.8 °C 29.57 in /  1001.2 hPa SSE 0.2 mph /  0.3 km/h 1.2 mph /  1.9 km/h 86 % 0.00 in /  0 mm
06:55 52.3 °F /  11.3 °C 48.2 °F /  9 °C 29.57 in /  1001.2 hPa South 1.0 mph /  1.6 km/h 3.5 mph /  5.6 km/h 86 % 0.00 in /  0 mm
07:00 52.7 °F /  11.5 °C 48.3 °F /  9.1 °C 29.57 in /  1001.2 hPa Calm   1.2 mph /  1.9 km/h 85 % 0.00 in /  0 mm
07:05 53.2 °F /  11.8 °C 48.2 °F /  9 °C 29.57 in /  1001.2 hPa SW 1.7 mph /  2.7 km/h 3.5 mph /  5.6 km/h 83 % 0.00 in /  0 mm
07:11 53.7 °F /  12.1 °C 48.0 °F /  8.9 °C 29.58 in /  1001.6 hPa SSW 3.0 mph /  4.8 km/h 4.6 mph /  7.4 km/h 81 % 0.00 in /  0 mm
07:16 54.1 °F /  12.3 °C 48.1 °F /  8.9 °C 29.58 in /  1001.6 hPa SW 2.0 mph /  3.2 km/h 7.0 mph /  11.3 km/h 80 % 0.00 in /  0 mm
07:21 54.5 °F /  12.5 °C 47.4 °F /  8.6 °C 29.58 in /  1001.6 hPa SW 3.0 mph /  4.8 km/h 8.0 mph /  12.9 km/h 77 % 0.00 in /  0 mm
07:26 54.8 °F /  12.7 °C 47.4 °F /  8.6 °C 29.58 in /  1001.6 hPa SW 2.0 mph /  3.2 km/h 7.0 mph /  11.3 km/h 76 % 0.00 in /  0 mm
07:31 55.0 °F /  12.8 °C 46.9 °F /  8.3 °C 29.58 in /  1001.6 hPa SW 3.0 mph /  4.8 km/h 11.0 mph /  17.7 km/h 74 % 0.00 in /  0 mm
07:36 55.0 °F /  12.8 °C 45.8 °F /  7.7 °C 29.58 in /  1001.6 hPa SW 5.0 mph /  8 km/h 12.0 mph /  19.3 km/h 71 % 0.00 in /  0 mm
07:41 55.0 °F /  12.8 °C 45.8 °F /  7.7 °C 29.59 in /  1001.9 hPa SSW 6.2 mph /  10 km/h 10.4 mph /  16.7 km/h 71 % 0.00 in /  0 mm
07:46 55.1 °F /  12.8 °C 45.9 °F /  7.7 °C 29.59 in /  1001.9 hPa SW 3.0 mph /  4.8 km/h 7.0 mph /  11.3 km/h 71 % 0.00 in /  0 mm
07:51 55.2 °F /  12.9 °C 46.4 °F /  8 °C 29.59 in /  1001.9 hPa SW 2.0 mph /  3.2 km/h 5.0 mph /  8 km/h 72 % 0.00 in /  0 mm
07:56 55.4 °F /  13 °C 45.8 °F /  7.7 °C 29.59 in /  1001.9 hPa SW 5.0 mph /  8 km/h 9.0 mph /  14.5 km/h 70 % 0.00 in /  0 mm
08:01 55.6 °F /  13.1 °C 45.6 °F /  7.6 °C 29.60 in /  1002.3 hPa SSW 5.4 mph /  8.7 km/h 9.0 mph /  14.5 km/h 69 % 0.00 in /  0 mm
08:06 55.7 °F /  13.2 °C 44.9 °F /  7.2 °C 29.60 in /  1002.3 hPa SW 7.0 mph /  11.3 km/h 17.0 mph /  27.4 km/h 67 % 0.00 in /  0 mm
08:11 55.7 °F /  13.2 °C 44.9 °F /  7.2 °C 29.59 in /  1001.9 hPa SW 7.0 mph /  11.3 km/h 15.0 mph /  24.1 km/h 67 % 0.00 in /  0 mm
08:16 55.9 °F /  13.3 °C 45.1 °F /  7.3 °C 29.59 in /  1001.9 hPa SW 3.0 mph /  4.8 km/h 9.0 mph /  14.5 km/h 67 % 0.00 in /  0 mm
08:21 56.0 °F /  13.3 °C 44.8 °F /  7.1 °C 29.59 in /  1001.9 hPa SSW 3.0 mph /  4.8 km/h 13.0 mph /  20.9 km/h 66 % 0.00 in /  0 mm
08:26 56.1 °F /  13.4 °C 44.9 °F /  7.2 °C 29.59 in /  1001.9 hPa SSW 3.0 mph /  4.8 km/h 9.0 mph /  14.5 km/h 66 % 0.00 in /  0 mm
08:31 56.1 °F /  13.4 °C 45.3 °F /  7.4 °C 29.59 in /  1001.9 hPa SW 5.0 mph /  8 km/h 8.0 mph /  12.9 km/h 67 % 0.00 in /  0 mm
08:36 56.1 °F /  13.4 °C 44.9 °F /  7.2 °C 29.60 in /  1002.3 hPa West 2.2 mph /  3.5 km/h 10.4 mph /  16.7 km/h 66 % 0.00 in /  0 mm
08:41 56.2 °F /  13.4 °C 45.0 °F /  7.2 °C 29.60 in /  1002.3 hPa West 6.3 mph /  10.1 km/h 9.2 mph /  14.8 km/h 66 % 0.00 in /  0 mm
08:46 56.3 °F /  13.5 °C 44.7 °F /  7.1 °C 29.60 in /  1002.3 hPa WSW 6.0 mph /  9.7 km/h 14.0 mph /  22.5 km/h 65 % 0.00 in /  0 mm
08:51 56.4 °F /  13.6 °C 44.8 °F /  7.1 °C 29.60 in /  1002.3 hPa SW 6.0 mph /  9.7 km/h 15.0 mph /  24.1 km/h 65 % 0.00 in /  0 mm
08:56 56.5 °F /  13.6 °C 44.9 °F /  7.2 °C 29.60 in /  1002.3 hPa SW 6.0 mph /  9.7 km/h 12.0 mph /  19.3 km/h 65 % 0.00 in /  0 mm
09:01 56.8 °F /  13.8 °C 45.6 °F /  7.6 °C 29.60 in /  1002.3 hPa WSW 6.2 mph /  10 km/h 11.0 mph /  17.7 km/h 66 % 0.00 in /  0 mm
09:06 57.0 °F /  13.9 °C 44.5 °F /  6.9 °C 29.60 in /  1002.3 hPa SSW 5.4 mph /  8.7 km/h 11.5 mph /  18.5 km/h 63 % 0.00 in /  0 mm
09:11 57.3 °F /  14.1 °C 44.4 °F /  6.9 °C 29.60 in /  1002.3 hPa SSW 7.0 mph /  11.3 km/h 12.0 mph /  19.3 km/h 62 % 0.00 in /  0 mm
09:16 57.5 °F /  14.2 °C 45.0 °F /  7.2 °C 29.60 in /  1002.3 hPa SW 3.0 mph /  4.8 km/h 12.0 mph /  19.3 km/h 63 % 0.00 in /  0 mm
09:21 57.6 °F /  14.2 °C 45.1 °F /  7.3 °C 29.60 in /  1002.3 hPa SSW 7.0 mph /  11.3 km/h 13.0 mph /  20.9 km/h 63 % 0.00 in /  0 mm
09:26 57.8 °F /  14.3 °C 44.5 °F /  6.9 °C 29.60 in /  1002.3 hPa SW 6.0 mph /  9.7 km/h 9.0 mph /  14.5 km/h 61 % 0.00 in /  0 mm
09:31 58.3 °F /  14.6 °C 44.9 °F /  7.2 °C 29.60 in /  1002.3 hPa SSW 5.0 mph /  8 km/h 8.1 mph /  13 km/h 61 % 0.00 in /  0 mm
09:36 58.7 °F /  14.8 °C 47.0 °F /  8.3 °C 29.60 in /  1002.3 hPa SSW 1.9 mph /  3.1 km/h 5.8 mph /  9.3 km/h 65 % 0.00 in /  0 mm
09:41 59.0 °F /  15 °C 45.6 °F /  7.6 °C 29.60 in /  1002.3 hPa SW 4.6 mph /  7.4 km/h 9.0 mph /  14.5 km/h 61 % 0.00 in /  0 mm
09:46 59.1 °F /  15.1 °C 45.7 °F /  7.6 °C 29.60 in /  1002.3 hPa SW 5.0 mph /  8 km/h 9.0 mph /  14.5 km/h 61 % 0.00 in /  0 mm
09:51 59.0 °F /  15 °C 45.1 °F /  7.3 °C 29.61 in /  1002.6 hPa SW 1.9 mph /  3.1 km/h 3.5 mph /  5.6 km/h 60 % 0.00 in /  0 mm
09:56 59.1 °F /  15.1 °C 45.7 °F /  7.6 °C 29.61 in /  1002.6 hPa SW 3.4 mph /  5.5 km/h 6.0 mph /  9.7 km/h 61 % 0.00 in /  0 mm
10:01 59.7 °F /  15.4 °C 46.7 °F /  8.2 °C 29.61 in /  1002.6 hPa WSW 3.2 mph /  5.1 km/h 5.8 mph /  9.3 km/h 62 % 0.00 in /  0 mm
10:06 60.7 °F /  15.9 °C 46.7 °F /  8.2 °C 29.60 in /  1002.3 hPa South 2.5 mph /  4 km/h 3.5 mph /  5.6 km/h 60 % 0.00 in /  0 mm
10:11 61.7 °F /  16.5 °C 47.2 °F /  8.4 °C 29.61 in /  1002.6 hPa West 1.5 mph /  2.4 km/h 3.5 mph /  5.6 km/h 59 % 0.00 in /  0 mm
10:16 62.4 °F /  16.9 °C 46.5 °F /  8.1 °C 29.60 in /  1002.3 hPa SE 4.3 mph /  6.9 km/h 5.8 mph /  9.3 km/h 56 % 0.00 in /  0 mm
10:21 63.0 °F /  17.2 °C 45.6 °F /  7.6 °C 29.61 in /  1002.6 hPa SSW 3.7 mph /  6 km/h 7.0 mph /  11.3 km/h 53 % 0.00 in /  0 mm
10:26 63.2 °F /  17.3 °C 46.3 °F /  7.9 °C 29.61 in /  1002.6 hPa SE 5.2 mph /  8.4 km/h 10.4 mph /  16.7 km/h 54 % 0.00 in /  0 mm
10:31 63.4 °F /  17.4 °C 46.5 °F /  8.1 °C 29.61 in /  1002.6 hPa SSW 4.0 mph /  6.4 km/h 6.9 mph /  11.1 km/h 54 % 0.00 in /  0 mm
10:36 64.1 °F /  17.8 °C 46.6 °F /  8.1 °C 29.61 in /  1002.6 hPa South 3.1 mph /  5 km/h 4.6 mph /  7.4 km/h 53 % 0.00 in /  0 mm
10:41 64.8 °F /  18.2 °C 48.7 °F /  9.3 °C 29.61 in /  1002.6 hPa ESE 1.7 mph /  2.7 km/h 5.0 mph /  8 km/h 56 % 0.00 in /  0 mm
10:46 64.7 °F /  18.2 °C 45.6 °F /  7.6 °C 29.61 in /  1002.6 hPa SW 7.0 mph /  11.3 km/h 10.4 mph /  16.7 km/h 50 % 0.00 in /  0 mm
10:51 64.1 °F /  17.8 °C 44.5 °F /  6.9 °C 29.61 in /  1002.6 hPa SE 2.3 mph /  3.7 km/h 8.0 mph /  12.9 km/h 49 % 0.00 in /  0 mm
10:56 63.2 °F /  17.3 °C 44.8 °F /  7.1 °C 29.61 in /  1002.6 hPa SSW 4.2 mph /  6.8 km/h 6.0 mph /  9.7 km/h 51 % 0.00 in /  0 mm
11:01 62.7 °F /  17.1 °C 46.3 °F /  7.9 °C 29.61 in /  1002.6 hPa SE 3.8 mph /  6.1 km/h 8.0 mph /  12.9 km/h 55 % 0.00 in /  0 mm
11:06 62.1 °F /  16.7 °C 44.3 °F /  6.8 °C 29.62 in /  1002.9 hPa SW 5.2 mph /  8.4 km/h 8.0 mph /  12.9 km/h 52 % 0.00 in /  0 mm
11:11 61.5 °F /  16.4 °C 44.2 °F /  6.8 °C 29.62 in /  1002.9 hPa SW 5.1 mph /  8.2 km/h 10.4 mph /  16.7 km/h 53 % 0.00 in /  0 mm
11:16 60.9 °F /  16.1 °C 43.6 °F /  6.4 °C 29.62 in /  1002.9 hPa SSW 7.3 mph /  11.7 km/h 10.0 mph /  16.1 km/h 53 % 0.00 in /  0 mm
11:22 60.4 °F /  15.8 °C 43.7 °F /  6.5 °C 29.62 in /  1002.9 hPa WSW 3.0 mph /  4.8 km/h 13.0 mph /  20.9 km/h 54 % 0.00 in /  0 mm
11:27 59.7 °F /  15.4 °C 43.5 °F /  6.4 °C 29.62 in /  1002.9 hPa SW 3.2 mph /  5.1 km/h 11.5 mph /  18.5 km/h 55 % 0.00 in /  0 mm
11:32 59.1 °F /  15.1 °C 42.9 °F /  6.1 °C 29.62 in /  1002.9 hPa SW 7.9 mph /  12.7 km/h 11.5 mph /  18.5 km/h 55 % 0.00 in /  0 mm
11:37 58.4 °F /  14.7 °C 42.8 °F /  6 °C 29.62 in /  1002.9 hPa West 3.6 mph /  5.8 km/h 8.1 mph /  13 km/h 56 % 0.00 in /  0 mm
11:42 58.0 °F /  14.4 °C 43.7 °F /  6.5 °C 29.62 in /  1002.9 hPa West 3.0 mph /  4.8 km/h 8.1 mph /  13 km/h 59 % 0.00 in /  0 mm
11:47 57.6 °F /  14.2 °C 43.4 °F /  6.3 °C 29.62 in /  1002.9 hPa SSW 3.7 mph /  6 km/h 6.9 mph /  11.1 km/h 59 % 0.00 in /  0 mm
11:48 57.5 °F /  14.2 °C 43.3 °F /  6.3 °C 29.62 in /  1002.9 hPa WSW 3.8 mph /  6.1 km/h 6.9 mph /  11.1 km/h 59 % 0.00 in /  0 mm
11:53 57.2 °F /  14 °C 43.0 °F /  6.1 °C 29.62 in /  1002.9 hPa WSW 2.4 mph /  3.9 km/h 8.1 mph /  13 km/h 59 % 0.00 in /  0 mm
11:58 57.4 °F /  14.1 °C 43.6 °F /  6.4 °C 29.62 in /  1002.9 hPa West 3.6 mph /  5.8 km/h 5.8 mph /  9.3 km/h 60 % 0.00 in /  0 mm
12:03 57.7 °F /  14.3 °C 43.5 °F /  6.4 °C 29.62 in /  1002.9 hPa NW 3.2 mph /  5.1 km/h 5.8 mph /  9.3 km/h 59 % 0.00 in /  0 mm
12:08 57.8 °F /  14.3 °C 43.6 °F /  6.4 °C 29.62 in /  1002.9 hPa SW 3.8 mph /  6.1 km/h 6.9 mph /  11.1 km/h 59 % 0.00 in /  0 mm
12:13 57.8 °F /  14.3 °C 43.6 °F /  6.4 °C 29.61 in /  1002.6 hPa WSW 5.2 mph /  8.4 km/h 8.1 mph /  13 km/h 59 % 0.00 in /  0 mm
12:18 57.7 °F /  14.3 °C 43.5 °F /  6.4 °C 29.62 in /  1002.9 hPa WNW 2.2 mph /  3.5 km/h 3.5 mph /  5.6 km/h 59 % 0.00 in /  0 mm
12:23 57.6 °F /  14.2 °C 43.8 °F /  6.6 °C 29.62 in /  1002.9 hPa West 0.7 mph /  1.1 km/h 4.6 mph /  7.4 km/h 60 % 0.00 in /  0 mm
12:28 57.5 °F /  14.2 °C 43.3 °F /  6.3 °C 29.61 in /  1002.6 hPa WSW 5.9 mph /  9.5 km/h 8.1 mph /  13 km/h 59 % 0.00 in /  0 mm
12:33 57.4 °F /  14.1 °C 43.2 °F /  6.2 °C 29.61 in /  1002.6 hPa SW 5.8 mph /  9.3 km/h 9.2 mph /  14.8 km/h 59 % 0.00 in /  0 mm
12:38 57.3 °F /  14.1 °C 43.5 °F /  6.4 °C 29.61 in /  1002.6 hPa WSW 0.9 mph /  1.4 km/h 3.0 mph /  4.8 km/h 60 % 0.00 in /  0 mm
12:43 57.3 °F /  14.1 °C 44.0 °F /  6.7 °C 29.62 in /  1002.9 hPa WSW 3.2 mph /  5.1 km/h 7.0 mph /  11.3 km/h 61 % 0.00 in /  0 mm
12:48 57.3 °F /  14.1 °C 44.4 °F /  6.9 °C 29.61 in /  1002.6 hPa SW 2.2 mph /  3.5 km/h 5.8 mph /  9.3 km/h 62 % 0.00 in /  0 mm
12:53 57.2 °F /  14 °C 44.3 °F /  6.8 °C 29.61 in /  1002.6 hPa WSW 1.9 mph /  3.1 km/h 6.9 mph /  11.1 km/h 62 % 0.00 in /  0 mm
12:58 57.2 °F /  14 °C 44.3 °F /  6.8 °C 29.61 in /  1002.6 hPa SSW 2.1 mph /  3.4 km/h 5.8 mph /  9.3 km/h 62 % 0.00 in /  0 mm
13:03 57.2 °F /  14 °C 45.1 °F /  7.3 °C 29.60 in /  1002.3 hPa SSW 2.3 mph /  3.7 km/h 4.6 mph /  7.4 km/h 64 % 0.00 in /  0 mm
13:08 57.3 °F /  14.1 °C 44.8 °F /  7.1 °C 29.60 in /  1002.3 hPa SW 3.4 mph /  5.5 km/h 6.9 mph /  11.1 km/h 63 % 0.00 in /  0 mm
13:13 57.4 °F /  14.1 °C 44.9 °F /  7.2 °C 29.61 in /  1002.6 hPa SW 2.8 mph /  4.5 km/h 5.8 mph /  9.3 km/h 63 % 0.00 in /  0 mm
13:18 57.4 °F /  14.1 °C 44.9 °F /  7.2 °C 29.61 in /  1002.6 hPa SSW 2.4 mph /  3.9 km/h 4.6 mph /  7.4 km/h 63 % 0.00 in /  0 mm
13:23 57.2 °F /  14 °C 44.7 °F /  7.1 °C 29.61 in /  1002.6 hPa South 1.7 mph /  2.7 km/h 5.8 mph /  9.3 km/h 63 % 0.00 in /  0 mm
13:28 57.0 °F /  13.9 °C 44.9 °F /  7.2 °C 29.61 in /  1002.6 hPa SSW 1.6 mph /  2.6 km/h 4.0 mph /  6.4 km/h 64 % 0.00 in /  0 mm
13:33 56.9 °F /  13.8 °C 44.8 °F /  7.1 °C 29.60 in /  1002.3 hPa SSW 2.8 mph /  4.5 km/h 8.0 mph /  12.9 km/h 64 % 0.00 in /  0 mm
13:39 56.8 °F /  13.8 °C 44.7 °F /  7.1 °C 29.61 in /  1002.6 hPa SW 1.2 mph /  1.9 km/h 3.5 mph /  5.6 km/h 64 % 0.00 in /  0 mm
13:44 56.7 °F /  13.7 °C 44.2 °F /  6.8 °C 29.61 in /  1002.6 hPa SW 2.3 mph /  3.7 km/h 5.8 mph /  9.3 km/h 63 % 0.00 in /  0 mm
13:49 56.6 °F /  13.7 °C 44.6 °F /  7 °C 29.61 in /  1002.6 hPa SSW 3.8 mph /  6.1 km/h 6.9 mph /  11.1 km/h 64 % 0.00 in /  0 mm
13:54 56.5 °F /  13.6 °C 44.0 °F /  6.7 °C 29.61 in /  1002.6 hPa South 1.6 mph /  2.6 km/h 3.5 mph /  5.6 km/h 63 % 0.00 in /  0 mm
13:59 56.4 °F /  13.6 °C 43.5 °F /  6.4 °C 29.61 in /  1002.6 hPa SW 4.9 mph /  7.9 km/h 12.0 mph /  19.3 km/h 62 % 0.00 in /  0 mm
14:04 56.3 °F /  13.5 °C 43.4 °F /  6.3 °C 29.61 in /  1002.6 hPa SSW 1.3 mph /  2.1 km/h 3.5 mph /  5.6 km/h 62 % 0.00 in /  0 mm
14:09 56.2 °F /  13.4 °C 43.3 °F /  6.3 °C 29.61 in /  1002.6 hPa SSW 5.0 mph /  8 km/h 9.2 mph /  14.8 km/h 62 % 0.00 in /  0 mm
14:14 56.3 °F /  13.5 °C 43.9 °F /  6.6 °C 29.61 in /  1002.6 hPa SSW 4.2 mph /  6.8 km/h 5.8 mph /  9.3 km/h 63 % 0.00 in /  0 mm
14:19 56.5 °F /  13.6 °C 44.0 °F /  6.7 °C 29.61 in /  1002.6 hPa WSW 1.3 mph /  2.1 km/h 5.0 mph /  8 km/h 63 % 0.00 in /  0 mm
14:24 57.0 °F /  13.9 °C 44.9 °F /  7.2 °C 29.61 in /  1002.6 hPa SW 0.9 mph /  1.4 km/h 4.6 mph /  7.4 km/h 64 % 0.00 in /  0 mm
14:29 57.5 °F /  14.2 °C 45.0 °F /  7.2 °C 29.61 in /  1002.6 hPa SSE 2.4 mph /  3.9 km/h 5.8 mph /  9.3 km/h 63 % 0.00 in /  0 mm
14:34 58.0 °F /  14.4 °C 44.2 °F /  6.8 °C 29.61 in /  1002.6 hPa SSW 3.1 mph /  5 km/h 5.0 mph /  8 km/h 60 % 0.00 in /  0 mm
14:35 58.1 °F /  14.5 °C 44.3 °F /  6.8 °C 29.60 in /  1002.3 hPa WSW 3.4 mph /  5.5 km/h 4.6 mph /  7.4 km/h 60 % 0.00 in /  0 mm
14:41 58.5 °F /  14.7 °C 44.2 °F /  6.8 °C 29.60 in /  1002.3 hPa SW 2.6 mph /  4.2 km/h 8.1 mph /  13 km/h 59 % 0.00 in /  0 mm
14:46 58.7 °F /  14.8 °C 44.4 °F /  6.9 °C 29.60 in /  1002.3 hPa SSW 4.6 mph /  7.4 km/h 8.1 mph /  13 km/h 59 % 0.00 in /  0 mm
14:51 58.8 °F /  14.9 °C 43.6 °F /  6.4 °C 29.60 in /  1002.3 hPa SW 4.6 mph /  7.4 km/h 6.9 mph /  11.1 km/h 57 % 0.00 in /  0 mm
14:56 58.7 °F /  14.8 °C 43.0 °F /  6.1 °C 29.60 in /  1002.3 hPa WSW 4.3 mph /  6.9 km/h 6.0 mph /  9.7 km/h 56 % 0.00 in /  0 mm
15:01 58.6 °F /  14.8 °C 43.4 °F /  6.3 °C 29.60 in /  1002.3 hPa WSW 4.4 mph /  7.1 km/h 8.1 mph /  13 km/h 57 % 0.00 in /  0 mm
15:06 58.4 °F /  14.7 °C 43.2 °F /  6.2 °C 29.60 in /  1002.3 hPa SW 3.1 mph /  5 km/h 8.0 mph /  12.9 km/h 57 % 0.00 in /  0 mm
15:11 58.2 °F /  14.6 °C 43.5 °F /  6.4 °C 29.60 in /  1002.3 hPa WSW 5.4 mph /  8.7 km/h 10.4 mph /  16.7 km/h 58 % 0.00 in /  0 mm
15:16 57.8 °F /  14.3 °C 42.7 °F /  5.9 °C 29.60 in /  1002.3 hPa SSW 7.1 mph /  11.4 km/h 11.5 mph /  18.5 km/h 57 % 0.00 in /  0 mm
15:21 57.5 °F /  14.2 °C 43.3 °F /  6.3 °C 29.60 in /  1002.3 hPa WSW 2.5 mph /  4 km/h 9.2 mph /  14.8 km/h 59 % 0.00 in /  0 mm
15:26 57.2 °F /  14 °C 43.0 °F /  6.1 °C 29.60 in /  1002.3 hPa SSW 6.6 mph /  10.6 km/h 11.5 mph /  18.5 km/h 59 % 0.00 in /  0 mm
15:31 56.9 °F /  13.8 °C 43.2 °F /  6.2 °C 29.60 in /  1002.3 hPa SW 6.8 mph /  10.9 km/h 11.5 mph /  18.5 km/h 60 % 0.00 in /  0 mm
15:36 56.7 °F /  13.7 °C 43.0 °F /  6.1 °C 29.60 in /  1002.3 hPa SW 3.3 mph /  5.3 km/h 6.9 mph /  11.1 km/h 60 % 0.00 in /  0 mm
15:41 56.5 °F /  13.6 °C 43.6 °F /  6.4 °C 29.60 in /  1002.3 hPa SW 1.1 mph /  1.8 km/h 3.5 mph /  5.6 km/h 62 % 0.00 in /  0 mm
15:46 56.4 °F /  13.6 °C 43.5 °F /  6.4 °C 29.60 in /  1002.3 hPa WSW 2.5 mph /  4 km/h 3.5 mph /  5.6 km/h 62 % 0.00 in /  0 mm
15:47 56.4 °F /  13.6 °C 43.5 °F /  6.4 °C 29.60 in /  1002.3 hPa SW 3.7 mph /  6 km/h 11.0 mph /  17.7 km/h 62 % 0.00 in /  0 mm
15:52 56.3 °F /  13.5 °C 43.9 °F /  6.6 °C 29.60 in /  1002.3 hPa WSW 3.1 mph /  5 km/h 5.8 mph /  9.3 km/h 63 % 0.00 in /  0 mm
15:57 56.3 °F /  13.5 °C 43.9 °F /  6.6 °C 29.60 in /  1002.3 hPa WSW 4.1 mph /  6.6 km/h 7.0 mph /  11.3 km/h 63 % 0.00 in /  0 mm
16:02 56.4 °F /  13.6 °C 44.0 °F /  6.7 °C 29.60 in /  1002.3 hPa SW 2.5 mph /  4 km/h 5.8 mph /  9.3 km/h 63 % 0.00 in /  0 mm
16:07 56.5 °F /  13.6 °C 44.0 °F /  6.7 °C 29.60 in /  1002.3 hPa WSW 1.3 mph /  2.1 km/h 3.5 mph /  5.6 km/h 63 % 0.00 in /  0 mm
16:12 56.6 °F /  13.7 °C 44.1 °F /  6.7 °C 29.60 in /  1002.3 hPa WSW 2.5 mph /  4 km/h 5.8 mph /  9.3 km/h 63 % 0.00 in /  0 mm
16:17 56.7 °F /  13.7 °C 44.2 °F /  6.8 °C 29.60 in /  1002.3 hPa SW 6.6 mph /  10.6 km/h 12.0 mph /  19.3 km/h 63 % 0.00 in /  0 mm
16:22 56.5 °F /  13.6 °C 46.1 °F /  7.8 °C 29.62 in /  1002.9 hPa SSW 5.1 mph /  8.2 km/h 11.5 mph /  18.5 km/h 68 % 0.00 in /  0 mm
16:27 55.9 °F /  13.3 °C 45.9 °F /  7.7 °C 29.62 in /  1002.9 hPa WSW 5.6 mph /  9 km/h 11.5 mph /  18.5 km/h 69 % 0.01 in /  0.25 mm
16:32 55.0 °F /  12.8 °C 45.4 °F /  7.4 °C 29.62 in /  1002.9 hPa WSW 3.4 mph /  5.5 km/h 5.8 mph /  9.3 km/h 70 % 0.01 in /  0.25 mm
16:37 54.5 °F /  12.5 °C 45.7 °F /  7.6 °C 29.62 in /  1002.9 hPa WSW 2.3 mph /  3.7 km/h 7.0 mph /  11.3 km/h 72 % 0.01 in /  0.25 mm
16:42 54.1 °F /  12.3 °C 45.6 °F /  7.6 °C 29.61 in /  1002.6 hPa Calm   1.2 mph /  1.9 km/h 73 % 0.01 in /  0.25 mm
16:48 53.8 °F /  12.1 °C 45.7 °F /  7.6 °C 29.61 in /  1002.6 hPa WSW 0.1 mph /  0.2 km/h 1.2 mph /  1.9 km/h 74 % 0.01 in /  0.25 mm
16:53 53.5 °F /  11.9 °C 46.1 °F /  7.8 °C 29.62 in /  1002.9 hPa West 1.3 mph /  2.1 km/h 5.8 mph /  9.3 km/h 76 % 0.01 in /  0.25 mm
16:58 53.0 °F /  11.7 °C 45.6 °F /  7.6 °C 29.63 in /  1003.3 hPa WSW 3.5 mph /  5.6 km/h 11.5 mph /  18.5 km/h 76 % 0.01 in /  0.25 mm
17:03 52.5 °F /  11.4 °C 44.8 °F /  7.1 °C 29.62 in /  1002.9 hPa WSW 4.3 mph /  6.9 km/h 12.7 mph /  20.4 km/h 75 % 0.01 in /  0.25 mm
17:08 52.2 °F /  11.2 °C 44.9 °F /  7.2 °C 29.62 in /  1002.9 hPa WSW 4.5 mph /  7.2 km/h 8.1 mph /  13 km/h 76 % 0.01 in /  0.25 mm
17:13 52.0 °F /  11.1 °C 45.0 °F /  7.2 °C 29.62 in /  1002.9 hPa West 3.0 mph /  4.8 km/h 6.9 mph /  11.1 km/h 77 % 0.01 in /  0.25 mm
17:18 51.9 °F /  11.1 °C 45.3 °F /  7.4 °C 29.62 in /  1002.9 hPa NW 5.6 mph /  9 km/h 9.2 mph /  14.8 km/h 78 % 0.01 in /  0.25 mm
17:23 51.8 °F /  11 °C 45.2 °F /  7.3 °C 29.62 in /  1002.9 hPa WNW 3.3 mph /  5.3 km/h 12.7 mph /  20.4 km/h 78 % 0.01 in /  0.25 mm
17:27 51.8 °F /  11 °C 45.5 °F /  7.5 °C 29.62 in /  1002.9 hPa WNW 3.4 mph /  5.5 km/h 6.9 mph /  11.1 km/h 79 % 0.01 in /  0.25 mm
17:32 51.7 °F /  10.9 °C 45.4 °F /  7.4 °C 29.62 in /  1002.9 hPa WSW 2.9 mph /  4.7 km/h 9.2 mph /  14.8 km/h 79 % 0.00 in /  0 mm
17:37 51.7 °F /  10.9 °C 45.7 °F /  7.6 °C 29.63 in /  1003.3 hPa West 3.0 mph /  4.8 km/h 9.2 mph /  14.8 km/h 80 % 0.00 in /  0 mm
17:42 51.7 °F /  10.9 °C 45.7 °F /  7.6 °C 29.63 in /  1003.3 hPa WSW 5.7 mph /  9.2 km/h 9.2 mph /  14.8 km/h 80 % 0.00 in /  0 mm
17:47 51.7 °F /  10.9 °C 45.4 °F /  7.4 °C 29.63 in /  1003.3 hPa WSW 5.5 mph /  8.9 km/h 10.4 mph /  16.7 km/h 79 % 0.00 in /  0 mm
17:52 51.8 °F /  11 °C 45.5 °F /  7.5 °C 29.64 in /  1003.6 hPa WSW 2.6 mph /  4.2 km/h 5.8 mph /  9.3 km/h 79 % 0.00 in /  0 mm
17:57 51.9 °F /  11.1 °C 45.6 °F /  7.6 °C 29.64 in /  1003.6 hPa WNW 4.8 mph /  7.7 km/h 9.2 mph /  14.8 km/h 79 % 0.00 in /  0 mm
18:02 51.9 °F /  11.1 °C 45.6 °F /  7.6 °C 29.64 in /  1003.6 hPa WSW 3.1 mph /  5 km/h 6.0 mph /  9.7 km/h 79 % 0.00 in /  0 mm
18:07 51.9 °F /  11.1 °C 45.3 °F /  7.4 °C 29.64 in /  1003.6 hPa WNW 4.9 mph /  7.9 km/h 10.4 mph /  16.7 km/h 78 % 0.00 in /  0 mm
18:12 51.9 °F /  11.1 °C 45.3 °F /  7.4 °C 29.64 in /  1003.6 hPa West 5.0 mph /  8 km/h 11.5 mph /  18.5 km/h 78 % 0.00 in /  0 mm
18:17 51.9 °F /  11.1 °C 45.3 °F /  7.4 °C 29.64 in /  1003.6 hPa NW 4.9 mph /  7.9 km/h 11.5 mph /  18.5 km/h 78 % 0.00 in /  0 mm
18:22 51.8 °F /  11 °C 45.2 °F /  7.3 °C 29.65 in /  1003.9 hPa West 5.4 mph /  8.7 km/h 10.4 mph /  16.7 km/h 78 % 0.00 in /  0 mm
18:27 51.7 °F /  10.9 °C 45.1 °F /  7.3 °C 29.65 in /  1003.9 hPa West 3.5 mph /  5.6 km/h 12.7 mph /  20.4 km/h 78 % 0.00 in /  0 mm
18:32 51.5 °F /  10.8 °C 44.5 °F /  6.9 °C 29.65 in /  1003.9 hPa NW 6.2 mph /  10 km/h 10.0 mph /  16.1 km/h 77 % 0.00 in /  0 mm
18:37 51.3 °F /  10.7 °C 44.7 °F /  7.1 °C 29.65 in /  1003.9 hPa West 4.6 mph /  7.4 km/h 8.1 mph /  13 km/h 78 % 0.00 in /  0 mm
18:42 51.2 °F /  10.7 °C 44.9 °F /  7.2 °C 29.65 in /  1003.9 hPa WNW 6.6 mph /  10.6 km/h 11.5 mph /  18.5 km/h 79 % 0.00 in /  0 mm
18:47 51.0 °F /  10.6 °C 45.0 °F /  7.2 °C 29.65 in /  1003.9 hPa NW 4.7 mph /  7.6 km/h 8.1 mph /  13 km/h 80 % 0.00 in /  0 mm
18:52 50.8 °F /  10.4 °C 45.5 °F /  7.5 °C 29.66 in /  1004.3 hPa WSW 3.8 mph /  6.1 km/h 8.0 mph /  12.9 km/h 82 % 0.00 in /  0 mm
18:54 50.7 °F /  10.4 °C 45.4 °F /  7.4 °C 29.65 in /  1003.9 hPa WNW 2.2 mph /  3.5 km/h 5.8 mph /  9.3 km/h 82 % 0.00 in /  0 mm
18:59 50.5 °F /  10.3 °C 45.2 °F /  7.3 °C 29.65 in /  1003.9 hPa West 3.0 mph /  4.8 km/h 6.9 mph /  11.1 km/h 82 % 0.00 in /  0 mm
19:04 50.2 °F /  10.1 °C 45.2 °F /  7.3 °C 29.66 in /  1004.3 hPa WSW 2.3 mph /  3.7 km/h 6.9 mph /  11.1 km/h 83 % 0.00 in /  0 mm
19:09 50.1 °F /  10.1 °C 45.1 °F /  7.3 °C 29.66 in /  1004.3 hPa North 4.7 mph /  7.6 km/h 11.5 mph /  18.5 km/h 83 % 0.00 in /  0 mm
19:14 49.9 °F /  9.9 °C 44.9 °F /  7.2 °C 29.67 in /  1004.6 hPa WSW 7.8 mph /  12.6 km/h 11.5 mph /  18.5 km/h 83 % 0.00 in /  0 mm
19:19 49.8 °F /  9.9 °C 43.9 °F /  6.6 °C 29.67 in /  1004.6 hPa WNW 4.4 mph /  7.1 km/h 7.0 mph /  11.3 km/h 80 % 0.00 in /  0 mm
19:24 49.7 °F /  9.8 °C 43.5 °F /  6.4 °C 29.67 in /  1004.6 hPa NW 4.2 mph /  6.8 km/h 6.0 mph /  9.7 km/h 79 % 0.00 in /  0 mm
19:29 49.6 °F /  9.8 °C 43.4 °F /  6.3 °C 29.67 in /  1004.6 hPa WNW 3.9 mph /  6.3 km/h 6.9 mph /  11.1 km/h 79 % 0.00 in /  0 mm
19:34 49.5 °F /  9.7 °C 43.3 °F /  6.3 °C 29.67 in /  1004.6 hPa WNW 2.3 mph /  3.7 km/h 6.0 mph /  9.7 km/h 79 % 0.00 in /  0 mm
19:39 49.4 °F /  9.7 °C 42.8 °F /  6 °C 29.68 in /  1005 hPa NW 3.6 mph /  5.8 km/h 12.7 mph /  20.4 km/h 78 % 0.00 in /  0 mm
19:44 49.3 °F /  9.6 °C 42.7 °F /  5.9 °C 29.68 in /  1005 hPa West 5.1 mph /  8.2 km/h 5.8 mph /  9.3 km/h 78 % 0.00 in /  0 mm
19:49 49.2 °F /  9.6 °C 42.6 °F /  5.9 °C 29.68 in /  1005 hPa NW 6.0 mph /  9.7 km/h 11.5 mph /  18.5 km/h 78 % 0.00 in /  0 mm
19:54 49.2 °F /  9.6 °C 42.6 °F /  5.9 °C 29.68 in /  1005 hPa SW 2.4 mph /  3.9 km/h 9.2 mph /  14.8 km/h 78 % 0.00 in /  0 mm
19:59 49.1 °F /  9.5 °C 42.9 °F /  6.1 °C 29.69 in /  1005.3 hPa NW 3.3 mph /  5.3 km/h 5.8 mph /  9.3 km/h 79 % 0.00 in /  0 mm
20:04 49.1 °F /  9.5 °C 42.9 °F /  6.1 °C 29.69 in /  1005.3 hPa NW 2.5 mph /  4 km/h 9.2 mph /  14.8 km/h 79 % 0.00 in /  0 mm
20:10 49.0 °F /  9.4 °C 42.8 °F /  6 °C 29.69 in /  1005.3 hPa WNW 2.6 mph /  4.2 km/h 4.6 mph /  7.4 km/h 79 % 0.00 in /  0 mm
20:15 49.0 °F /  9.4 °C 42.8 °F /  6 °C 29.69 in /  1005.3 hPa WSW 5.2 mph /  8.4 km/h 5.8 mph /  9.3 km/h 79 % 0.00 in /  0 mm
20:20 48.9 °F /  9.4 °C 42.3 °F /  5.7 °C 29.69 in /  1005.3 hPa NNW 4.0 mph /  6.4 km/h 5.8 mph /  9.3 km/h 78 % 0.00 in /  0 mm
20:25 48.9 °F /  9.4 °C 42.0 °F /  5.6 °C 29.69 in /  1005.3 hPa West 4.2 mph /  6.8 km/h 10.4 mph /  16.7 km/h 77 % 0.00 in /  0 mm
20:30 48.8 °F /  9.3 °C 41.9 °F /  5.5 °C 29.70 in /  1005.6 hPa WNW 2.8 mph /  4.5 km/h 8.1 mph /  13 km/h 77 % 0.00 in /  0 mm
20:35 48.8 °F /  9.3 °C 41.9 °F /  5.5 °C 29.70 in /  1005.6 hPa West 6.3 mph /  10.1 km/h 11.5 mph /  18.5 km/h 77 % 0.00 in /  0 mm
20:40 48.8 °F /  9.3 °C 41.9 °F /  5.5 °C 29.71 in /  1006 hPa West 2.4 mph /  3.9 km/h 8.1 mph /  13 km/h 77 % 0.00 in /  0 mm
20:45 48.8 °F /  9.3 °C 41.9 °F /  5.5 °C 29.71 in /  1006 hPa NW 3.5 mph /  5.6 km/h 10.4 mph /  16.7 km/h 77 % 0.00 in /  0 mm
20:50 48.8 °F /  9.3 °C 41.9 °F /  5.5 °C 29.72 in /  1006.3 hPa WSW 3.9 mph /  6.3 km/h 10.4 mph /  16.7 km/h 77 % 0.00 in /  0 mm
20:55 48.8 °F /  9.3 °C 41.6 °F /  5.3 °C 29.72 in /  1006.3 hPa WSW 5.2 mph /  8.4 km/h 11.5 mph /  18.5 km/h 76 % 0.00 in /  0 mm
21:00 48.9 °F /  9.4 °C 41.7 °F /  5.4 °C 29.72 in /  1006.3 hPa WNW 3.0 mph /  4.8 km/h 4.6 mph /  7.4 km/h 76 % 0.00 in /  0 mm
21:05 48.9 °F /  9.4 °C 41.7 °F /  5.4 °C 29.72 in /  1006.3 hPa West 2.7 mph /  4.3 km/h 8.0 mph /  12.9 km/h 76 % 0.00 in /  0 mm
21:10 48.9 °F /  9.4 °C 41.7 °F /  5.4 °C 29.73 in /  1006.7 hPa NW 3.8 mph /  6.1 km/h 9.2 mph /  14.8 km/h 76 % 0.00 in /  0 mm
21:15 48.9 °F /  9.4 °C 41.3 °F /  5.2 °C 29.73 in /  1006.7 hPa West 5.4 mph /  8.7 km/h 10.0 mph /  16.1 km/h 75 % 0.00 in /  0 mm
21:20 48.9 °F /  9.4 °C 41.3 °F /  5.2 °C 29.73 in /  1006.7 hPa WSW 6.3 mph /  10.1 km/h 12.7 mph /  20.4 km/h 75 % 0.00 in /  0 mm
21:25 48.9 °F /  9.4 °C 41.3 °F /  5.2 °C 29.73 in /  1006.7 hPa West 3.8 mph /  6.1 km/h 5.8 mph /  9.3 km/h 75 % 0.00 in /  0 mm
21:30 48.8 °F /  9.3 °C 41.2 °F /  5.1 °C 29.73 in /  1006.7 hPa West 4.6 mph /  7.4 km/h 11.5 mph /  18.5 km/h 75 % 0.00 in /  0 mm
21:35 48.8 °F /  9.3 °C 41.6 °F /  5.3 °C 29.73 in /  1006.7 hPa WNW 4.6 mph /  7.4 km/h 10.0 mph /  16.1 km/h 76 % 0.00 in /  0 mm
21:40 48.8 °F /  9.3 °C 41.6 °F /  5.3 °C 29.73 in /  1006.7 hPa WSW 3.2 mph /  5.1 km/h 11.5 mph /  18.5 km/h 76 % 0.00 in /  0 mm
21:45 48.8 °F /  9.3 °C 41.6 °F /  5.3 °C 29.73 in /  1006.7 hPa WNW 3.0 mph /  4.8 km/h 8.1 mph /  13 km/h 76 % 0.00 in /  0 mm
21:50 48.7 °F /  9.3 °C 41.1 °F /  5.1 °C 29.73 in /  1006.7 hPa WNW 3.4 mph /  5.5 km/h 9.2 mph /  14.8 km/h 75 % 0.00 in /  0 mm
21:55 48.7 °F /  9.3 °C 41.5 °F /  5.3 °C 29.73 in /  1006.7 hPa WSW 2.9 mph /  4.7 km/h 6.9 mph /  11.1 km/h 76 % 0.00 in /  0 mm
22:00 48.7 °F /  9.3 °C 41.1 °F /  5.1 °C 29.73 in /  1006.7 hPa SSW 4.9 mph /  7.9 km/h 4.9 mph /  7.9 km/h 75 % 0.00 in /  0 mm
22:05 48.7 °F /  9.3 °C 41.1 °F /  5.1 °C 29.73 in /  1006.7 hPa West 2.6 mph /  4.2 km/h 4.6 mph /  7.4 km/h 75 % 0.00 in /  0 mm
22:10 48.7 °F /  9.3 °C 41.1 °F /  5.1 °C 29.74 in /  1007 hPa WNW 5.6 mph /  9 km/h 6.9 mph /  11.1 km/h 75 % 0.00 in /  0 mm
22:16 48.6 °F /  9.2 °C 40.7 °F /  4.8 °C 29.74 in /  1007 hPa West 5.0 mph /  8 km/h 10.0 mph /  16.1 km/h 74 % 0.00 in /  0 mm
22:21 48.6 °F /  9.2 °C 40.7 °F /  4.8 °C 29.74 in /  1007 hPa WSW 8.5 mph /  13.7 km/h 10.0 mph /  16.1 km/h 74 % 0.00 in /  0 mm
22:26 48.6 °F /  9.2 °C 40.7 °F /  4.8 °C 29.74 in /  1007 hPa WSW 6.0 mph /  9.7 km/h 16.0 mph /  25.7 km/h 74 % 0.00 in /  0 mm
22:31 48.6 °F /  9.2 °C 40.7 °F /  4.8 °C 29.74 in /  1007 hPa West 7.0 mph /  11.3 km/h 15.0 mph /  24.1 km/h 74 % 0.00 in /  0 mm
22:36 48.6 °F /  9.2 °C 40.7 °F /  4.8 °C 29.74 in /  1007 hPa West 3.0 mph /  4.8 km/h 8.0 mph /  12.9 km/h 74 % 0.00 in /  0 mm
22:41 48.5 °F /  9.2 °C 40.6 °F /  4.8 °C 29.74 in /  1007 hPa WSW 6.0 mph /  9.7 km/h 12.0 mph /  19.3 km/h 74 % 0.00 in /  0 mm
22:46 48.5 °F /  9.2 °C 40.6 °F /  4.8 °C 29.74 in /  1007 hPa West 5.0 mph /  8 km/h 13.0 mph /  20.9 km/h 74 % 0.00 in /  0 mm
22:51 48.4 °F /  9.1 °C 40.5 °F /  4.7 °C 29.73 in /  1006.7 hPa West 8.0 mph /  12.9 km/h 10.0 mph /  16.1 km/h 74 % 0.00 in /  0 mm
22:56 48.4 °F /  9.1 °C 40.8 °F /  4.9 °C 29.73 in /  1006.7 hPa West 3.0 mph /  4.8 km/h 12.0 mph /  19.3 km/h 75 % 0.00 in /  0 mm
23:01 48.3 °F /  9.1 °C 40.4 °F /  4.7 °C 29.73 in /  1006.7 hPa West 2.9 mph /  4.7 km/h 5.8 mph /  9.3 km/h 74 % 0.00 in /  0 mm
23:06 48.3 °F /  9.1 °C 40.4 °F /  4.7 °C 29.73 in /  1006.7 hPa WSW 3.3 mph /  5.3 km/h 9.2 mph /  14.8 km/h 74 % 0.00 in /  0 mm
23:11 48.3 °F /  9.1 °C 40.7 °F /  4.8 °C 29.73 in /  1006.7 hPa NW 5.3 mph /  8.5 km/h 8.1 mph /  13 km/h 75 % 0.00 in /  0 mm
23:16 48.2 °F /  9 °C 40.6 °F /  4.8 °C 29.73 in /  1006.7 hPa West 5.2 mph /  8.4 km/h 11.5 mph /  18.5 km/h 75 % 0.00 in /  0 mm
23:21 48.1 °F /  8.9 °C 40.5 °F /  4.7 °C 29.73 in /  1006.7 hPa West 6.0 mph /  9.7 km/h 11.5 mph /  18.5 km/h 75 % 0.00 in /  0 mm
23:26 48.1 °F /  8.9 °C 40.5 °F /  4.7 °C 29.73 in /  1006.7 hPa West 5.0 mph /  8 km/h 10.4 mph /  16.7 km/h 75 % 0.00 in /  0 mm
23:31 48.0 °F /  8.9 °C 40.5 °F /  4.7 °C 29.73 in /  1006.7 hPa WSW 3.4 mph /  5.5 km/h 9.2 mph /  14.8 km/h 75 % 0.00 in /  0 mm
23:36 48.0 °F /  8.9 °C 40.5 °F /  4.7 °C 29.73 in /  1006.7 hPa West 4.7 mph /  7.6 km/h 11.5 mph /  18.5 km/h 75 % 0.00 in /  0 mm
23:41 47.9 °F /  8.8 °C 40.0 °F /  4.4 °C 29.73 in /  1006.7 hPa WNW 4.6 mph /  7.4 km/h 10.0 mph /  16.1 km/h 74 % 0.00 in /  0 mm
23:46 47.9 °F /  8.8 °C 39.7 °F /  4.3 °C 29.73 in /  1006.7 hPa WSW 8.1 mph /  13 km/h 12.7 mph /  20.4 km/h 73 % 0.00 in /  0 mm
23:51 47.9 °F /  8.8 °C 39.7 °F /  4.3 °C 29.73 in /  1006.7 hPa NNW 6.4 mph /  10.3 km/h 11.5 mph /  18.5 km/h 73 % 0.00 in /  0 mm
23:56 48.0 °F /  8.9 °C 40.1 °F /  4.5 °C 29.73 in /  1006.7 hPa WNW 3.9 mph /  6.3 km/h 8.1 mph /  13 km/h 74 % 0.00 in /  0 mm
Crab Meadow Weather
Compliments of Weather Underground - 3 mb

Script developed by  Jim McMurry - jmcmurry@mwt.net Adapted for the template by  Wim van der Kuil - Leuven-Template.eu

Astronomy: Pluto is not a planet, because it does not have a fixed orbit and it's orbit comes in between the orbit of another planet (Neptune).